EW4479 Weather Reports


time (UTC)temp
C
wind
direction
speed
KPH
gust
KPH
rain 1hr
cm
rain 24hr
cm
rain mn
cm
humidity
%
barometer
mb
20230207120500 0 81 6.4 17.7 0.00 0.00 0.00 78 1036.2
20230207115500 0 84 8.0 16.1 0.00 0.00 0.00 79 1036.2
20230207114958 0 85 6.4 16.1 0.00 0.00 0.00 79 1036.1
20230207114459 0 83 6.4 14.5 0.00 0.00 0.00 80 1036.3
20230207113953 0 83 8.0 12.9 0.00 0.00 0.00 80 1036.3
20230207113454 -1 78 8.0 16.1 0.00 0.00 0.00 81 1036.4
20230207112452 -1 75 6.4 17.7 0.00 0.00 0.00 81 1036.4
20230207111949 -1 71 6.4 14.5 0.00 0.00 0.00 83 1036.6
20230207111446 -1 75 6.4 12.9 0.00 0.00 0.00 84 1036.6
20230207110940 -1 83 8.0 12.9 0.00 0.00 0.00 83 1036.6
20230207105433 -1 67 4.8 16.1 0.00 0.00 0.00 84 1036.3
20230207103428 -2 78 6.4 14.5 0.00 0.00 0.00 85 1036.2
20230207102429 -2 69 6.4 20.9 0.00 0.00 0.00 87 1036.3
20230207101428 -2 74 11.3 17.7 0.00 0.00 0.00 87 1036.5
20230207095941 -3 76 6.4 22.5 0.00 0.00 0.00 88 1036.6
20230207095432 -3 68 8.0 16.1 0.00 0.00 0.00 87 1036.5
20230207094932 -3 88 9.7 16.1 0.00 0.00 0.00 88 1036.5
20230207094433 -3 77 8.0 16.1 0.00 0.00 0.00 88 1036.4
20230207093931 -3 90 8.0 17.7 0.00 0.00 0.00 88 1036.5
20230207093429 -3 84 8.0 17.7 0.00 0.00 0.00 88 1036.6
20230207092430 -3 89 4.8 14.5 0.00 0.00 0.00 89 1036.4
20230207091930 -3 67 6.4 14.5 0.00 0.00 0.00 89 1036.4
20230207091429 -3 83 6.4 14.5 0.00 0.00 0.00 89 1036.4
20230207090429 -3 62 6.4 14.5 0.00 0.00 0.00 89 1036.3
20230207085930 -3 72 8.0 16.1 0.00 0.00 0.00 89 1036.2
20230207084429 -4 82 6.4 14.5 0.00 0.03 0.00 90 1036.1
20230207083930 -4 88 6.4 14.5 0.00 0.03 0.00 90 1036.1
20230207083429 -5 92 8.0 14.5 0.00 0.03 0.00 89 1035.9
20230207082930 -5 88 6.4 20.9 0.00 0.03 0.00 90 1036.1
20230207082428 -5 82 11.3 20.9 0.00 0.03 0.00 90 1035.9
20230207081929 -5 94 6.4 17.7 0.00 0.03 0.00 90 1036.1
20230207081429 -5 92 8.0 17.7 0.00 0.03 0.00 90 1035.9
20230207080939 -5 100 6.4 16.1 0.00 0.03 0.00 90 1035.9
20230207080429 -5 90 6.4 16.1 0.00 0.03 0.00 91 1035.8
20230207075929 -5 85 4.8 12.9 0.00 0.03 0.00 91 1036.1
20230207075428 -5 97 6.4 16.1 0.00 0.03 0.00 92 1036.1
20230207074430 -5 71 6.4 16.1 0.00 0.03 0.00 92 1036.2
20230207073930 -6 83 6.4 16.1 0.00 0.03 0.00 93 1036.2
20230207073429 -6 121 4.8 9.7 0.00 0.03 0.00 93 1036.2
20230207072432 -6 90 4.8 12.9 0.00 0.03 0.00 93 1036.3
20230207071429 -6 93 3.2 11.3 0.00 0.03 0.00 93 1036.1
20230207070928 -6 90 4.8 11.3 0.00 0.03 0.00 93 1036.1
20230207070423 -6 86 6.4 11.3 0.00 0.03 0.00 93 1036.2
20230207065926 -6 90 3.2 12.9 0.00 0.03 0.00 93 1036.3
20230207064912 -6 94 6.4 12.9 0.00 0.03 0.00 93 1036.2
20230207064410 -6 90 9.7 12.9 0.00 0.03 0.00 93 1036.1
20230207063909 -6 88 4.8 9.7 0.00 0.03 0.00 93 1036.2
20230207063410 -6 89 6.4 9.7 0.00 0.03 0.00 93 1036.2
20230207062906 -6 92 3.2 9.7 0.00 0.03 0.00 93 1036.2
20230207062403 -6 88 3.2 6.4 0.00 0.03 0.00 93 1036.1
20230207061904 -6 97 1.6 4.8 0.00 0.03 0.00 93 1036.1
20230207061402 -6 97 3.2 4.8 0.00 0.03 0.00 93 1035.8
20230207060403 -6 88 3.2 6.4 0.00 0.03 0.00 93 1036.2
20230207055902 -6 89 1.6 9.7 0.00 0.03 0.00 93 1035.9
20230207055416 -6 90 3.2 9.7 0.00 0.03 0.00 93 1035.9
20230207054902 -6 88 3.2 6.4 0.00 0.03 0.00 93 1035.7
20230207054401 -6 89 1.6 3.2 0.00 0.03 0.00 93 1035.8
20230207053903 -6 89 1.6 6.4 0.00 0.03 0.00 92 1035.7
20230207052902 -6 89 1.6 6.4 0.00 0.03 0.00 93 1035.8
20230207052400 -6 78 3.2 6.4 0.00 0.03 0.00 92 1035.7
20230207051401 -6 91 3.2 9.7 0.00 0.03 0.00 92 1035.7
20230207050913 -6 86 1.6 6.4 0.00 0.03 0.00 92 1035.6
20230207050351 -6 86 0.0 6.4 0.00 0.03 0.00 92 1035.4
20230207044841 -6 86 1.6 11.3 0.00 0.03 0.00 92 1035.5
20230207044339 -6 92 3.2 8.0 0.00 0.03 0.00 92 1035.6
20230207043840 -6 88 3.2 9.7 0.00 0.03 0.00 92 1035.6
20230207043340 -6 88 4.8 11.3 0.00 0.03 0.00 92 1035.6
20230207042833 -6 92 4.8 11.3 0.00 0.03 0.00 92 1035.7
20230207040830 -6 88 4.8 9.7 0.00 0.03 0.00 92 1035.8
20230207035829 -5 88 3.2 11.3 0.00 0.03 0.00 92 1035.7
20230207035329 -5 91 6.4 14.5 0.00 0.03 0.00 92 1035.7
20230207034330 -5 94 6.4 17.7 0.00 0.03 0.00 92 1035.6
20230207033832 -5 97 8.0 17.7 0.00 0.03 0.00 92 1035.7
20230207032829 -5 91 6.4 14.5 0.00 0.03 0.00 92 1036.1
20230207032328 -5 90 8.0 14.5 0.00 0.03 0.00 92 1036.3
20230207031828 -5 113 8.0 14.5 0.00 0.03 0.00 92 1036.3
20230207031330 -5 84 9.7 14.5 0.00 0.03 0.00 92 1036.1
20230207030829 -5 77 6.4 16.1 0.00 0.03 0.00 92 1036.1
20230207030329 -5 92 8.0 16.1 0.00 0.03 0.00 92 1036.1
20230207025829 -5 82 8.0 17.7 0.00 0.03 0.00 92 1036.1
20230207025329 -5 80 8.0 17.7 0.00 0.03 0.00 91 1035.9
20230207024329 -5 86 9.7 14.5 0.00 0.03 0.00 92 1035.7
20230207023829 -5 84 8.0 14.5 0.00 0.03 0.00 91 1035.7
20230207023328 -5 94 9.7 14.5 0.00 0.03 0.00 91 1035.6
20230207022829 -5 94 6.4 16.1 0.00 0.03 0.00 91 1035.7
20230207022328 -5 87 6.4 16.1 0.00 0.03 0.00 91 1035.6
20230207021828 -5 94 6.4 14.5 0.00 0.03 0.00 91 1035.7
20230207021332 -5 92 8.0 14.5 0.00 0.03 0.00 92 1035.6
20230207020359 -5 85 8.0 16.1 0.00 0.03 0.00 92 1035.5
20230207015832 -5 92 8.0 16.1 0.00 0.03 0.00 92 1035.4
20230207015330 -5 88 8.0 16.1 0.00 0.03 0.00 92 1035.4
20230207014828 -5 80 6.4 14.5 0.00 0.03 0.00 92 1035.5
20230207014330 -5 84 6.4 16.1 0.00 0.03 0.00 92 1035.4
20230207013829 -5 83 6.4 16.1 0.00 0.03 0.00 92 1035.5
20230207013330 -5 94 9.7 16.1 0.00 0.03 0.00 92 1035.3
20230207012829 -5 82 4.8 14.5 0.00 0.03 0.00 92 1035.3
20230207012330 -5 80 6.4 12.9 0.00 0.03 0.00 91 1035.3
20230207011849 -4 78 6.4 12.9 0.00 0.03 0.00 92 1035.3
20230207011329 -4 92 4.8 12.9 0.00 0.03 0.00 92 1035.2
20230207010843 -4 83 4.8 14.5 0.00 0.03 0.00 91 1035.1
20230207005831 -4 107 6.4 14.5 0.00 0.03 0.00 91 1034.9
20230207005328 -4 105 6.4 14.5 0.00 0.03 0.00 91 1035.1
20230207004829 -4 94 6.4 14.5 0.00 0.03 0.00 91 1035.1
20230207002829 -4 84 8.0 16.1 0.00 0.03 0.00 91 1035.2
20230207002329 -4 92 6.4 16.1 0.00 0.03 0.00 91 1035.3
20230207001328 -4 84 6.4 12.9 0.00 0.03 0.00 91 1035.3
20230207000329 -4 91 8.0 14.5 0.00 0.03 0.00 90 1035.5
20230206235842 -4 81 8.0 16.1 0.00 0.03 0.00 90 1035.4
20230206235327 -4 96 6.4 16.1 0.00 0.03 0.00 91 1035.5
20230206234832 -4 86 4.8 16.1 0.00 0.03 0.00 90 1035.5
20230206234323 -4 93 4.8 12.9 0.00 0.03 0.00 90 1035.5
20230206233817 -4 94 4.8 12.9 0.00 0.03 0.00 90 1035.4
20230206233316 -4 82 6.4 11.3 0.00 0.03 0.00 90 1035.2
20230206232815 -4 84 4.8 11.3 0.00 0.03 0.00 90 1035.0
20230206231815 -4 87 3.2 11.3 0.00 0.03 0.00 90 1035.0
20230206231311 -4 91 6.4 11.3 0.00 0.03 0.00 90 1034.9
20230206230810 -3 80 8.0 11.3 0.00 0.03 0.00 90 1034.9
20230206225306 -3 94 3.2 12.9 0.00 0.03 0.03 89 1034.6
20230206224806 -3 89 3.2 11.3 0.00 0.03 0.03 89 1034.5
20230206224305 -3 89 3.2 11.3 0.00 0.03 0.03 89 1034.6
20230206223803 -3 88 6.4 9.7 0.00 0.03 0.03 88 1034.7
20230206222801 -3 92 3.2 8.0 0.00 0.03 0.03 88 1034.8
20230206222301 -3 90 3.2 9.7 0.00 0.03 0.03 88 1034.8
20230206221757 -3 85 4.8 11.3 0.00 0.03 0.03 88 1034.8
20230206221252 -3 86 6.4 12.9 0.00 0.03 0.03 88 1034.9
20230206220749 -3 91 3.2 12.9 0.00 0.03 0.03 88 1035.0
20230206215750 -3 94 6.4 12.9 0.00 0.03 0.03 87 1035.0
20230206215241 -3 82 6.4 12.9 0.00 0.03 0.03 87 1035.0
20230206214737 -3 94 8.0 12.9 0.00 0.03 0.03 87 1035.1
20230206214238 -3 87 4.8 9.7 0.00 0.03 0.03 88 1035.1
20230206213737 -3 92 4.8 11.3 0.00 0.03 0.03 89 1035.1
20230206213236 -3 90 6.4 11.3 0.00 0.03 0.03 89 1035.3
20230206212737 -3 80 4.8 12.9 0.00 0.03 0.03 90 1035.2
20230206212234 -3 84 6.4 12.9 0.00 0.03 0.03 91 1035.1
20230206211731 -3 88 4.8 12.9 0.00 0.03 0.03 91 1035.1
20230206211232 -3 88 6.4 9.7 0.00 0.03 0.03 92 1035.2
20230206210229 -3 96 3.2 9.7 0.00 0.05 0.03 93 1035.1
20230206205229 -2 65 0.0 4.8 0.00 0.05 0.03 93 1035.1
20230206204728 -2 69 0.0 3.2 0.00 0.05 0.03 92 1035.1
20230206204228 -2 69 1.6 3.2 0.00 0.05 0.03 92 1035.1
20230206203728 -2 65 3.2 3.2 0.00 0.05 0.03 92 1035.1
20230206203231 -2 65 1.6 4.8 0.00 0.05 0.03 92 1034.9
20230206202732 -2 65 3.2 4.8 0.00 0.05 0.03 92 1034.9
20230206202230 -2 65 0.0 3.2 0.00 0.05 0.03 92 1034.8
20230206201228 -2 65 1.6 4.8 0.00 0.05 0.03 92 1035.0
20230206200730 -2 65 3.2 4.8 0.00 0.05 0.03 92 1035.1
20230206200229 -2 65 1.6 4.8 0.00 0.05 0.03 92 1035.0
20230206195729 -2 65 1.6 4.8 0.00 0.05 0.03 92 1035.0
20230206195229 -2 58 0.0 1.6 0.00 0.05 0.03 92 1034.9
20230206194729 -2 58 0.0 1.6 0.00 0.05 0.03 92 1034.9
20230206193232 -2 55 3.2 4.8 0.00 0.05 0.03 91 1034.9
20230206191732 -2 40 0.0 3.2 0.00 0.05 0.03 91 1034.8
20230206191228 -2 40 0.0 1.6 0.00 0.05 0.03 91 1034.8
20230206190728 -2 40 0.0 3.2 0.00 0.05 0.03 91 1034.8
20230206190230 -2 40 1.6 3.2 0.00 0.05 0.03 91 1034.8
20230206185241 -2 40 0.0 3.2 0.00 0.05 0.03 90 1035.1
20230206184729 -2 32 0.0 0.0 0.00 0.05 0.03 90 1035.1
20230206184228 -2 30 0.0 0.0 0.00 0.05 0.03 90 1035.1
20230206183229 -1 30 0.0 0.0 0.00 0.05 0.03 90 1035.1
20230206182729 -1 29 0.0 0.0 0.00 0.05 0.03 90 1035.1
20230206182229 -1 29 0.0 0.0 0.00 0.05 0.03 89 1035.0
20230206181228 -1 32 0.0 0.0 0.00 0.05 0.03 89 1034.9
20230206180722 -1 32 0.0 1.6 0.00 0.05 0.03 89 1035.0
20230206175212 -1 26 0.0 1.6 0.00 0.05 0.03 88 1035.4
20230206174210 -1 32 0.0 3.2 0.00 0.05 0.03 87 1035.2
20230206173708 -1 32 0.0 3.2 0.00 0.05 0.03 87 1035.1
20230206173205 -1 5 0.0 3.2 0.00 0.05 0.03 87 1035.1
20230206171703 -1 355 0.0 1.6 0.00 0.05 0.03 85 1034.9
20230206171229 -1 355 0.0 1.6 0.00 0.05 0.03 84 1034.8
20230206170702 -1 298 0.0 3.2 0.00 0.05 0.03 84 1034.6
20230206170203 -1 355 0.0 3.2 0.00 0.05 0.03 84 1034.6
20230206165702 -1 298 0.0 0.0 0.00 0.05 0.03 84 1034.7
20230206165201 -1 298 0.0 3.2 0.00 0.05 0.03 84 1034.7
20230206164702 -1 355 1.6 4.8 0.00 0.05 0.03 84 1034.6
20230206164201 -1 344 0.0 4.8 0.00 0.05 0.03 84 1034.3
20230206163713 -1 294 0.0 3.2 0.00 0.05 0.03 83 1034.3
20230206163201 -1 15 0.0 1.6 0.00 0.05 0.03 82 1034.3
20230206162706 -1 15 0.0 1.6 0.00 0.05 0.03 82 1034.3
20230206162203 -1 15 0.0 1.6 0.00 0.05 0.03 82 1034.2
20230206161704 -1 300 0.0 3.2 0.00 0.05 0.03 80 1034.4
20230206160704 -1 15 0.0 1.6 0.00 0.05 0.03 80 1034.4
20230206160202 -1 15 0.0 0.0 0.00 0.05 0.03 80 1034.2
20230206155203 -1 15 0.0 1.6 0.00 0.05 0.03 81 1034.2
20230206154702 -1 300 0.0 0.0 0.00 0.05 0.03 81 1034.4
20230206153701 -1 300 0.0 0.0 0.00 0.05 0.03 81 1034.5
20230206153201 -1 300 0.0 0.0 0.00 0.05 0.03 81 1034.4
20230206152700 -1 300 0.0 4.8 0.00 0.05 0.03 82 1034.4
20230206152202 -1 300 0.0 6.4 0.00 0.05 0.03 80 1034.3
20230206151702 -1 337 1.6 6.4 0.00 0.08 0.03 80 1034.3
20230206151202 -1 65 0.0 4.8 0.00 0.08 0.03 81 1034.5
20230206150200 -1 61 0.0 1.6 0.00 0.08 0.03 82 1034.5
20230206145700 -1 61 0.0 3.2 0.00 0.08 0.03 81 1034.4
20230206144702 -1 54 1.6 4.8 0.00 0.08 0.03 82 1034.5
20230206144203 -1 62 1.6 4.8 0.00 0.08 0.03 82 1034.5
20230206143702 -1 34 0.0 4.8 0.00 0.08 0.03 83 1034.5
20230206143202 -1 30 1.6 4.8 0.00 0.08 0.03 81 1034.4
20230206142202 -1 52 1.6 4.8 0.00 0.08 0.03 84 1034.6
20230206141203 -1 68 1.6 6.4 0.00 0.08 0.03 83 1034.6
20230206140201 -1 63 0.0 6.4 0.00 0.08 0.03 82 1034.7
20230206135201 -1 43 0.0 8.0 0.00 0.08 0.03 82 1034.5
20230206134659 -1 59 1.6 8.0 0.00 0.08 0.03 82 1034.5
20230206134154 -1 75 1.6 8.0 0.00 0.10 0.03 82 1034.6
20230206133651 -1 329 3.2 8.0 0.00 0.10 0.03 83 1034.5
20230206132651 -1 29 0.0 4.8 0.00 0.10 0.03 84 1034.4
20230206131646 -1 49 3.2 6.4 0.00 0.10 0.03 84 1034.5
20230206131146 -1 5 1.6 6.4 0.00 0.10 0.03 86 1034.4
20230206130642 -1 57 1.6 4.8 0.00 0.10 0.03 86 1034.4
20230206125636 -1 35 0.0 4.8 0.00 0.10 0.03 86 1034.6
20230206125130 -1 53 1.6 4.8 0.00 0.13 0.03 86 1034.8
20230206124630 -1 17 1.6 8.0 0.00 0.13 0.03 86 1034.7
20230206124129 -1 23 1.6 8.0 0.00 0.13 0.03 86 1035.1
20230206123629 -1 18 1.6 4.8 0.00 0.13 0.03 87 1035.3
20230206123128 -1 53 1.6 4.8 0.00 0.13 0.03 87 1035.2
20230206122629 -1 349 3.2 4.8 0.00 0.13 0.03 88 1035.2
20230206121121 -1 53 3.2 6.4 0.00 0.13 0.03 87 1035.0